User: anonymous
Location: Onan Observatory
(44.8103°N, 93.9397°W)
Time: 04:17:51
(UTC-05:00)
Language:

Iridium 90 - Orbit

View from above orbital plane
View from above orbital plane
View from above satellite
View from above satellite

Ground track
Ground track

The orbit data is extracted from the following two-line orbital elements,

1 27373U 02005B   14202.42551819  .00000152  00000-0  39595-4 0  4081
2 27373 086.4449 073.8872 0001063 031.8521 328.2743 14.42945067658240
Epoch (UTC): 21 July 2014 10:12:44
Eccentricity: 0.0001063
inclination: 86.4449°
perigee height: 748 km
apogee height: 749 km
right ascension of ascending node: 73.8872°
argument of perigee: 31.8521°
revolutions per day: 14.42945067
mean anomaly at epoch: 328.2743°
orbit number at epoch: 65824

The dashed part of the orbit path shows where the satellite is in the earth's shadow,  

DLR